Tracking 30995 objects as of 5-Jul-2025
HD Live streaming from Space Station
objects crossing your sky now

NOAA 16 DEB

Track NOAA 16 DEB now!
10-day predictions


NORAD ID: 42401
Int'l Code: 2000-055SV
Perigee: 688.2 km
Apogee: 758.6 km
Inclination: 99.0 °
Period: 99.1 minutes
Semi major axis: 7094 km
RCS: Unknown
Launch date: September 21, 2000
Source: United States (US)
Launch site: AIR FORCE WESTERN TEST RANGE (AFWTR)

Note: This is SATELLITE DEBRIS
Your satellite tracking list
ADEOS 2
Track 1 satellite(s)




NASA's NSSDC Master Catalog

Two Line Element Set (TLE):
1 42401U 00055SV  25186.38690638  .00006443  00000-0  15521-2 0  9999
2 42401  98.9761  33.2481 0049611  17.5348 342.7544 14.52868451487959
Source of the keplerian elements: AFSPC